Time,TemperatureF,DewpointF,PressureIn,WindDirection,WindDirectionDegrees,WindSpeedMPH,WindSpeedGustMPH,Humidity,HourlyPrecipIn,Conditions,Clouds,dailyrainin,SoftwareType,DateUTC
2013-03-16 00:02:00,52.0,44.0,30.21,North,0,0.0,0.0,75,99.99,,,-99.99,,2013-03-16 04:02:00,
2013-03-16 00:13:00,52.0,44.0,30.21,North,0,0.0,0.0,75,99.99,,,-99.99,,2013-03-16 04:13:00,
2013-03-16 00:23:00,51.0,44.0,30.20,North,0,0.0,0.0,78,99.99,,,-99.99,,2013-03-16 04:23:00,
2013-03-16 00:33:00,50.0,44.0,30.20,North,0,0.0,0.0,79,99.99,,,-99.99,,2013-03-16 04:33:00,
2013-03-16 00:43:00,50.0,44.0,30.20,North,0,0.0,0.0,79,99.99,,,-99.99,,2013-03-16 04:43:00,
2013-03-16 00:53:00,49.0,43.0,30.21,North,0,0.0,0.0,81,99.99,,,-99.99,,2013-03-16 04:53:00,
2013-03-16 01:02:00,49.0,44.0,30.20,North,0,0.0,0.0,83,99.99,,,-99.99,,2013-03-16 05:02:00,
2013-03-16 01:12:00,49.0,44.0,30.20,North,0,0.0,0.0,83,99.99,,,-99.99,,2013-03-16 05:12:00,
2013-03-16 01:22:00,48.0,44.0,30.19,SSE,149,1.0,4.0,85,99.99,,,-99.99,,2013-03-16 05:22:00,
2013-03-16 01:32:00,47.0,43.0,30.19,NNW,347,1.0,4.0,86,99.99,,,-99.99,,2013-03-16 05:32:00,
2013-03-16 01:42:00,47.0,43.0,30.19,NNW,347,1.0,4.0,86,99.99,,,-99.99,,2013-03-16 05:42:00,
2013-03-16 01:53:00,47.0,44.0,30.19,North,359,1.0,3.0,89,99.99,,,-99.99,,2013-03-16 05:53:00,
2013-03-16 02:02:00,46.0,43.0,30.19,North,0,0.0,0.0,88,99.99,,,-99.99,,2013-03-16 06:02:00,
2013-03-16 02:12:00,46.0,43.0,30.19,North,0,0.0,0.0,88,99.99,,,-99.99,,2013-03-16 06:12:00,
2013-03-16 02:22:00,46.0,43.0,30.18,North,0,0.0,0.0,89,99.99,,,-99.99,,2013-03-16 06:22:00,
2013-03-16 02:32:00,45.0,42.0,30.17,North,0,0.0,0.0,89,99.99,,,-99.99,,2013-03-16 06:32:00,
2013-03-16 02:42:00,45.0,42.0,30.17,North,0,0.0,0.0,89,99.99,,,-99.99,,2013-03-16 06:42:00,
2013-03-16 02:52:00,45.0,42.0,30.17,North,0,0.0,0.0,90,99.99,,,-99.99,,2013-03-16 06:52:00,
2013-03-16 03:02:00,45.0,43.0,30.17,North,0,0.0,0.0,91,99.99,,,-99.99,,2013-03-16 07:02:00,
2013-03-16 03:12:00,45.0,43.0,30.17,North,0,0.0,0.0,91,99.99,,,-99.99,,2013-03-16 07:12:00,
2013-03-16 03:22:00,44.0,42.0,30.16,North,0,0.0,0.0,91,99.99,,,-99.99,,2013-03-16 07:22:00,
2013-03-16 03:32:00,44.0,42.0,30.16,North,0,0.0,0.0,92,99.99,,,-99.99,,2013-03-16 07:32:00,
2013-03-16 03:42:00,44.0,42.0,30.16,North,0,0.0,0.0,92,99.99,,,-99.99,,2013-03-16 07:42:00,
2013-03-16 03:52:00,43.0,41.0,30.16,North,0,0.0,0.0,91,99.99,,,-99.99,,2013-03-16 07:52:00,
2013-03-16 04:02:00,43.0,41.0,30.16,North,0,0.0,0.0,92,99.99,,,-99.99,,2013-03-16 08:02:00,
2013-03-16 04:12:00,43.0,41.0,30.16,North,0,0.0,0.0,92,99.99,,,-99.99,,2013-03-16 08:12:00,
2013-03-16 04:23:00,43.0,41.0,30.16,North,0,0.0,0.0,94,99.99,,,-99.99,,2013-03-16 08:23:00,
2013-03-16 04:32:00,43.0,42.0,30.15,North,0,0.0,0.0,95,99.99,,,-99.99,,2013-03-16 08:32:00,
2013-03-16 04:42:00,43.0,42.0,30.15,North,0,0.0,0.0,95,99.99,,,-99.99,,2013-03-16 08:42:00,
2013-03-16 04:52:00,43.0,42.0,30.15,SW,225,3.0,4.0,95,99.99,,,-99.99,,2013-03-16 08:52:00,
2013-03-16 05:02:00,43.0,42.0,30.15,SW,225,1.0,3.0,95,99.99,,,-99.99,,2013-03-16 09:02:00,
2013-03-16 05:12:00,43.0,42.0,30.15,SW,225,1.0,3.0,95,99.99,,,-99.99,,2013-03-16 09:12:00,
2013-03-16 05:22:00,43.0,42.0,30.15,North,0,0.0,0.0,96,99.99,,,-99.99,,2013-03-16 09:22:00,
2013-03-16 05:33:00,43.0,42.0,30.15,North,0,0.0,0.0,95,99.99,,,-99.99,,2013-03-16 09:33:00,
2013-03-16 05:42:00,43.0,42.0,30.15,North,0,0.0,0.0,95,99.99,,,-99.99,,2013-03-16 09:42:00,
2013-03-16 05:53:00,42.0,41.0,30.16,North,0,0.0,0.0,95,99.99,,,-99.99,,2013-03-16 09:53:00,
2013-03-16 06:03:00,43.0,42.0,30.16,North,0,0.0,0.0,97,99.99,,,-99.99,,2013-03-16 10:03:00,
2013-03-16 06:12:00,43.0,42.0,30.16,North,0,0.0,0.0,97,99.99,,,-99.99,,2013-03-16 10:12:00,
2013-03-16 06:23:00,43.0,42.0,30.16,North,0,0.0,0.0,97,99.99,,,-99.99,,2013-03-16 10:23:00,
2013-03-16 06:32:00,43.0,42.0,30.16,North,0,0.0,0.0,97,99.99,,,-99.99,,2013-03-16 10:32:00,
2013-03-16 06:42:00,43.0,42.0,30.16,North,0,0.0,0.0,97,99.99,,,-99.99,,2013-03-16 10:42:00,
2013-03-16 06:53:00,42.0,41.0,30.17,North,0,0.0,0.0,97,99.99,,,-99.99,,2013-03-16 10:53:00,
2013-03-16 07:03:00,42.0,41.0,30.17,North,0,0.0,0.0,97,99.99,,,-99.99,,2013-03-16 11:03:00,
2013-03-16 07:12:00,42.0,41.0,30.17,North,0,0.0,0.0,97,99.99,,,-99.99,,2013-03-16 11:12:00,
2013-03-16 07:22:00,42.0,41.0,30.17,North,0,0.0,0.0,98,99.99,,,-99.99,,2013-03-16 11:22:00,
2013-03-16 07:32:00,42.0,41.0,30.17,North,0,0.0,0.0,98,99.99,,,-99.99,,2013-03-16 11:32:00,
2013-03-16 07:43:00,42.0,41.0,30.17,North,0,0.0,0.0,98,99.99,,,-99.99,,2013-03-16 11:43:00,
2013-03-16 07:53:00,41.0,40.0,30.18,North,0,0.0,0.0,98,99.99,,,-99.99,,2013-03-16 11:53:00,
2013-03-16 08:02:00,42.0,41.0,30.19,North,0,0.0,0.0,98,99.99,,,-99.99,,2013-03-16 12:02:00,
2013-03-16 08:12:00,42.0,41.0,30.19,North,0,0.0,0.0,98,99.99,,,-99.99,,2013-03-16 12:12:00,
2013-03-16 08:22:00,42.0,41.0,30.19,North,0,0.0,0.0,98,99.99,,,-99.99,,2013-03-16 12:22:00,
2013-03-16 08:32:00,43.0,43.0,30.19,North,0,0.0,0.0,99,99.99,,,-99.99,,2013-03-16 12:32:00,
2013-03-16 08:42:00,43.0,43.0,30.19,North,0,0.0,0.0,99,99.99,,,-99.99,,2013-03-16 12:42:00,
2013-03-16 08:53:00,44.0,44.0,30.19,North,0,0.0,0.0,100,99.99,,,-99.99,,2013-03-16 12:53:00,
2013-03-16 09:02:00,47.0,47.0,30.20,North,0,0.0,0.0,100,99.99,,,-99.99,,2013-03-16 13:02:00,
2013-03-16 09:12:00,47.0,47.0,30.20,North,0,0.0,0.0,100,99.99,,,-99.99,,2013-03-16 13:12:00,
2013-03-16 09:22:00,50.0,50.0,30.20,North,0,0.0,0.0,100,99.99,,,-99.99,,2013-03-16 13:22:00,
2013-03-16 09:32:00,53.0,53.0,30.20,WNW,293,1.0,3.0,100,99.99,,,-99.99,,2013-03-16 13:32:00,
2013-03-16 09:42:00,53.0,53.0,30.20,WNW,293,1.0,3.0,100,99.99,,,-99.99,,2013-03-16 13:42:00,
2013-03-16 09:52:00,56.0,55.0,30.20,WSW,249,2.0,5.0,97,99.99,,,-99.99,,2013-03-16 13:52:00,
2013-03-16 10:03:00,60.0,54.0,30.20,SW,221,3.0,5.0,81,99.99,,,-99.99,,2013-03-16 14:03:00,
2013-03-16 10:12:00,60.0,54.0,30.20,SW,221,3.0,5.0,81,99.99,,,-99.99,,2013-03-16 14:12:00,
2013-03-16 10:22:00,64.0,54.0,30.20,WNW,283,3.0,6.0,71,99.99,,,-99.99,,2013-03-16 14:22:00,
2013-03-16 10:32:00,67.0,55.0,30.20,WSW,253,5.0,9.0,66,99.99,,,-99.99,,2013-03-16 14:32:00,
2013-03-16 10:42:00,67.0,55.0,30.20,WSW,253,5.0,9.0,66,99.99,,,-99.99,,2013-03-16 14:42:00,
2013-03-16 10:52:00,68.0,54.0,30.20,SSW,210,6.0,10.0,61,99.99,,,-99.99,,2013-03-16 14:52:00,
2013-03-16 11:03:00,70.0,53.0,30.19,SW,226,6.0,10.0,54,99.99,,,-99.99,,2013-03-16 15:03:00,
2013-03-16 11:12:00,70.0,53.0,30.19,SW,226,6.0,10.0,54,99.99,,,-99.99,,2013-03-16 15:12:00,
2013-03-16 11:23:00,72.0,51.0,30.19,SW,231,7.0,11.0,47,99.99,,,-99.99,,2013-03-16 15:23:00,
2013-03-16 11:33:00,72.0,49.0,30.19,WSW,240,6.0,10.0,45,99.99,,,-99.99,,2013-03-16 15:33:00,
2013-03-16 11:43:00,72.0,49.0,30.19,WSW,240,6.0,10.0,45,99.99,,,-99.99,,2013-03-16 15:43:00,
2013-03-16 11:53:00,73.0,50.0,30.19,SW,224,4.0,8.0,44,99.99,,,-99.99,,2013-03-16 15:53:00,
2013-03-16 12:03:00,74.0,48.0,30.18,SW,224,4.0,9.0,40,99.99,,,-99.99,,2013-03-16 16:03:00,
2013-03-16 12:12:00,74.0,48.0,30.18,SW,224,4.0,9.0,40,99.99,,,-99.99,,2013-03-16 16:12:00,
2013-03-16 12:23:00,74.0,48.0,30.18,SW,229,5.0,8.0,40,99.99,,,-99.99,,2013-03-16 16:23:00,
2013-03-16 12:33:00,75.0,48.0,30.17,SSW,194,5.0,10.0,39,99.99,,,-99.99,,2013-03-16 16:33:00,
2013-03-16 12:42:00,75.0,48.0,30.17,SSW,194,5.0,10.0,39,99.99,,,-99.99,,2013-03-16 16:42:00,
2013-03-16 12:53:00,76.0,47.0,30.17,SW,233,3.0,7.0,36,99.99,,,-99.99,,2013-03-16 16:53:00,
2013-03-16 13:03:00,75.0,45.0,30.16,NW,312,4.0,8.0,35,99.99,,,-99.99,,2013-03-16 17:03:00,
2013-03-16 13:13:00,75.0,45.0,30.16,NW,312,4.0,8.0,35,99.99,,,-99.99,,2013-03-16 17:13:00,
2013-03-16 13:23:00,75.0,45.0,30.15,SW,222,3.0,9.0,34,99.99,,,-99.99,,2013-03-16 17:23:00,
2013-03-16 13:33:00,76.0,44.0,30.15,West,277,1.0,5.0,32,99.99,,,-99.99,,2013-03-16 17:33:00,
2013-03-16 13:42:00,76.0,44.0,30.15,West,277,1.0,5.0,32,99.99,,,-99.99,,2013-03-16 17:42:00,
2013-03-16 13:53:00,78.0,42.0,30.14,SW,235,5.0,8.0,28,99.99,,,-99.99,,2013-03-16 17:53:00,
2013-03-16 14:02:00,79.0,42.0,30.13,South,190,4.0,8.0,27,99.99,,,-99.99,,2013-03-16 18:02:00,
2013-03-16 14:13:00,79.0,42.0,30.13,South,190,4.0,8.0,27,99.99,,,-99.99,,2013-03-16 18:13:00,
2013-03-16 14:23:00,80.0,41.0,30.12,WNW,290,2.0,7.0,25,99.99,,,-99.99,,2013-03-16 18:23:00,
2013-03-16 14:33:00,81.0,40.0,30.12,SW,226,5.0,8.0,23,99.99,,,-99.99,,2013-03-16 18:33:00,
2013-03-16 14:43:00,81.0,40.0,30.12,SW,226,5.0,8.0,23,99.99,,,-99.99,,2013-03-16 18:43:00,
2013-03-16 14:53:00,80.0,41.0,30.11,SW,231,6.0,11.0,25,99.99,,,-99.99,,2013-03-16 18:53:00,
2013-03-16 15:02:00,80.0,41.0,30.10,SSW,210,5.0,10.0,25,99.99,,,-99.99,,2013-03-16 19:02:00,
2013-03-16 15:12:00,80.0,41.0,30.10,SSW,210,5.0,10.0,25,99.99,,,-99.99,,2013-03-16 19:12:00,
2013-03-16 15:22:00,79.0,39.0,30.09,NW,311,4.0,7.0,24,99.99,,,-99.99,,2013-03-16 19:22:00,
2013-03-16 15:32:00,79.0,39.0,30.09,West,274,2.0,7.0,24,99.99,,,-99.99,,2013-03-16 19:32:00,
2013-03-16 15:42:00,79.0,39.0,30.09,West,274,2.0,7.0,24,99.99,,,-99.99,,2013-03-16 19:42:00,
2013-03-16 15:53:00,81.0,39.0,30.08,WSW,246,5.0,9.0,22,99.99,,,-99.99,,2013-03-16 19:53:00,
2013-03-16 16:02:00,81.0,37.0,30.08,WNW,298,4.0,10.0,21,99.99,,,-99.99,,2013-03-16 20:02:00,
2013-03-16 16:12:00,81.0,37.0,30.08,WNW,298,4.0,10.0,21,99.99,,,-99.99,,2013-03-16 20:12:00,
2013-03-16 16:22:00,81.0,36.0,30.07,SW,215,3.0,7.0,20,99.99,,,-99.99,,2013-03-16 20:22:00,
2013-03-16 16:32:00,82.0,37.0,30.07,WSW,249,2.0,8.0,20,99.99,,,-99.99,,2013-03-16 20:32:00,
2013-03-16 16:42:00,82.0,37.0,30.07,WSW,249,2.0,8.0,20,99.99,,,-99.99,,2013-03-16 20:42:00,
2013-03-16 16:52:00,82.0,36.0,30.07,WSW,252,4.0,8.0,19,99.99,,,-99.99,,2013-03-16 20:52:00,
2013-03-16 17:02:00,82.0,38.0,30.06,SSW,203,3.0,7.0,21,99.99,,,-99.99,,2013-03-16 21:02:00,
2013-03-16 17:12:00,82.0,38.0,30.06,SSW,203,3.0,7.0,21,99.99,,,-99.99,,2013-03-16 21:12:00,
2013-03-16 17:22:00,82.0,37.0,30.06,SSW,208,6.0,10.0,20,99.99,,,-99.99,,2013-03-16 21:22:00,
2013-03-16 17:33:00,82.0,37.0,30.06,SW,225,4.0,8.0,20,99.99,,,-99.99,,2013-03-16 21:33:00,
2013-03-16 17:43:00,82.0,37.0,30.06,SW,225,4.0,8.0,20,99.99,,,-99.99,,2013-03-16 21:43:00,
2013-03-16 17:53:00,81.0,37.0,30.06,SSW,210,6.0,9.0,21,99.99,,,-99.99,,2013-03-16 21:53:00,
2013-03-16 18:03:00,81.0,40.0,30.06,WSW,257,5.0,9.0,23,99.99,,,-99.99,,2013-03-16 22:03:00,
2013-03-16 18:12:00,81.0,40.0,30.06,WSW,257,5.0,9.0,23,99.99,,,-99.99,,2013-03-16 22:12:00,
2013-03-16 18:23:00,80.0,40.0,30.06,NW,304,4.0,6.0,24,99.99,,,-99.99,,2013-03-16 22:23:00,
2013-03-16 18:33:00,79.0,41.0,30.06,SW,219,5.0,8.0,26,99.99,,,-99.99,,2013-03-16 22:33:00,
2013-03-16 18:42:00,79.0,41.0,30.06,SW,219,5.0,8.0,26,99.99,,,-99.99,,2013-03-16 22:42:00,
2013-03-16 18:53:00,78.0,43.0,30.06,SW,222,2.0,4.0,29,99.99,,,-99.99,,2013-03-16 22:53:00,
2013-03-16 19:02:00,77.0,43.0,30.06,SW,224,2.0,3.0,30,99.99,,,-99.99,,2013-03-16 23:02:00,
2013-03-16 19:13:00,77.0,43.0,30.06,SW,224,2.0,3.0,30,99.99,,,-99.99,,2013-03-16 23:13:00,
2013-03-16 19:22:00,76.0,44.0,30.06,SSW,210,1.0,3.0,32,99.99,,,-99.99,,2013-03-16 23:22:00,
2013-03-16 19:33:00,75.0,45.0,30.06,North,0,0.0,0.0,35,99.99,,,-99.99,,2013-03-16 23:33:00,
2013-03-16 19:42:00,75.0,45.0,30.06,North,0,0.0,0.0,35,99.99,,,-99.99,,2013-03-16 23:42:00,
2013-03-16 19:53:00,73.0,47.0,30.07,North,0,0.0,0.0,39,99.99,,,-99.99,,2013-03-16 23:53:00,
2013-03-16 20:02:00,71.0,46.0,30.07,South,174,3.0,6.0,41,99.99,,,-99.99,,2013-03-17 00:02:00,
2013-03-16 20:12:00,71.0,46.0,30.07,South,174,3.0,6.0,41,99.99,,,-99.99,,2013-03-17 00:12:00,
2013-03-16 20:22:00,69.0,45.0,30.07,SSW,198,4.0,6.0,42,99.99,,,-99.99,,2013-03-17 00:22:00,
2013-03-16 20:32:00,68.0,47.0,30.08,West,281,3.0,6.0,47,99.99,,,-99.99,,2013-03-17 00:32:00,
2013-03-16 20:42:00,68.0,47.0,30.08,West,281,3.0,6.0,47,99.99,,,-99.99,,2013-03-17 00:42:00,
2013-03-16 20:52:00,67.0,47.0,30.09,NW,305,8.0,11.0,49,99.99,,,-99.99,,2013-03-17 00:52:00,
2013-03-16 21:02:00,67.0,47.0,30.09,West,278,4.0,7.0,48,99.99,,,-99.99,,2013-03-17 01:02:00,
2013-03-16 21:12:00,67.0,47.0,30.09,West,278,4.0,7.0,48,99.99,,,-99.99,,2013-03-17 01:12:00,
2013-03-16 21:22:00,67.0,47.0,30.10,WNW,283,3.0,5.0,49,99.99,,,-99.99,,2013-03-17 01:22:00,
2013-03-16 21:32:00,66.0,47.0,30.10,WNW,283,4.0,6.0,51,99.99,,,-99.99,,2013-03-17 01:32:00,
2013-03-16 21:42:00,66.0,47.0,30.10,WNW,283,4.0,6.0,51,99.99,,,-99.99,,2013-03-17 01:42:00,
2013-03-16 21:53:00,65.0,47.0,30.11,West,273,5.0,7.0,53,99.99,,,-99.99,,2013-03-17 01:53:00,
2013-03-16 22:03:00,64.0,47.0,30.11,WNW,288,3.0,5.0,53,99.99,,,-99.99,,2013-03-17 02:03:00,
2013-03-16 22:13:00,64.0,47.0,30.11,WNW,288,3.0,5.0,53,99.99,,,-99.99,,2013-03-17 02:13:00,
2013-03-16 22:22:00,64.0,47.0,30.12,WNW,295,3.0,5.0,54,99.99,,,-99.99,,2013-03-17 02:22:00,
2013-03-16 22:33:00,63.0,47.0,30.12,WNW,287,2.0,6.0,55,99.99,,,-99.99,,2013-03-17 02:33:00,
2013-03-16 22:43:00,63.0,47.0,30.12,WNW,287,2.0,6.0,55,99.99,,,-99.99,,2013-03-17 02:43:00,
2013-03-16 22:53:00,63.0,47.0,30.12,WNW,298,3.0,5.0,56,99.99,,,-99.99,,2013-03-17 02:53:00,
2013-03-16 23:02:00,61.0,46.0,30.12,NW,315,2.0,3.0,58,99.99,,,-99.99,,2013-03-17 03:02:00,
2013-03-16 23:12:00,61.0,46.0,30.12,NW,315,2.0,3.0,58,99.99,,,-99.99,,2013-03-17 03:12:00,
2013-03-16 23:22:00,60.0,47.0,30.12,North,0,0.0,0.0,61,99.99,,,-99.99,,2013-03-17 03:22:00,
2013-03-16 23:33:00,59.0,46.0,30.12,NW,312,2.0,3.0,63,99.99,,,-99.99,,2013-03-17 03:33:00,
2013-03-16 23:43:00,59.0,46.0,30.12,NW,312,2.0,3.0,63,99.99,,,-99.99,,2013-03-17 03:43:00,
2013-03-16 23:53:00,58.0,47.0,30.12,WNW,297,3.0,4.0,66,99.99,,,-99.99,,2013-03-17 03:53:00,